DELTA 1 DEB (YO), 167

Orbit data source: Space-Track

DELTA 1 DEB (YO), 167 is space debris in LEO originally from a launch on Wed, 12 Jul 1961 UTC launched from the Air Force Eastern Test Range (AFETR). Debris objects in space refer to the collection of defunct objects orbiting the Earth. Examples of debris include non-operational satellites, rocket bodies, and fragments generated from explosions, collisions, or faulty payload assembly.

Loading next visibility...
Identifier
167, 1961-017D
Orbit
LEO
Last TLE update
2 days ago
Origin
Manufacturer
RCA/East Windsor
Mission
Spacecraft
Bus & Motor
Unknown
Mass
~1 kg wet, ~1 kg dry
Launch date (UTC)
1961-07-12 (64 years ago)
Launch vehicle
Unknown
Launch site
Air Force Eastern Test Range (AFETR)
Object type
Payload
Rocket body
Debris
Shape & HBR
Unknown
Radar Cross Section
Small (<0.1 m²)

Expand to show TLE details & history

TLE from 2 days ago
0 DELTA 1 DEB (YO)
1 00167U 61017D   25181.30180389 -.00000093  00000-0  25487-4 0  9991
2 00167  47.8435 155.7454 0089612 110.0403 251.0154 14.23944176314527
Epoch: 2025-06-30T07:14Z
TLE epoch observation values (Epoch: 2025-06-30T07:14:35.856Z)
Latitude
-0.00002°
Longitude
128.48241°
Altitude
833.82 km
Speed
7.426 km/s
True Right ascension
10h 22m 58s
True Declination
0° 00' 00"
Sunlit
Object was in daylight at epoch
Visualization orbit readout
Latitude
25.89228°
Longitude
-85.8954°
Altitude
754.608 km
Speed
7.511 km/s
Apparent Right ascension
23h 23m 27s
Apparent Declination
-12° 00' 12"
Sunlit
Object is in full shadow
Visualization observer readout
Local Sidereal Time
17:04:25
Azimuth
96.291° ESE
Elevation
-11.283°
Doppler factor
1
Orbital elements
Apogee altitude
877.568 km
Perigee altitude
748.683 km
Semi-major axis
7,191.262 km
Eccentricity
0.00896
Inclination
47.8435°
RAAN
155.7454°
Arg. of periapsis
110.0403°
True anomaly
Unknown
Mean anomaly
251.0154°
Eccentric anomaly
Unknown
Mean motion
3.55906 °/min
Orbital period
101.15 mins
BSTAR
0.000025487
Loading maneuver chart data...
Loading SW <> Apogee altitude chart data...
Loading historical data...
Loading historical data...
Loading historical data...
Loading historical data...
Loading historical data...
Loading historical data...
Loading historical data...
Other satellites on launch #17 in the year 1961 (1961-07-12 UTC)

DELTA 1 DEB (YO) Visibility forecast

Observer location: undefined°, undefined°

Span
Click to sort rows by Start time (UTC) header in descending order
Start Az.
Max El. time (UTC)
Max El. Az.
Max El.
End time (UTC)
End Az.
10 mins2025-07-02 06:52:51.915Z298.599° NW2025-07-02 06:57:51.915Z171.319° S44.622°2025-07-02 07:02:51.915Z124.991° SE
5 mins2025-07-02 08:40:51.915Z257.692° W2025-07-02 08:42:51.915Z230.753° WSW17.625°2025-07-02 08:45:51.915Z191.605° SSW
7 mins2025-07-02 23:23:51.915Z176.359° S2025-07-02 23:26:51.915Z134.83° SE22.461°2025-07-02 23:30:51.915Z84.023° E
8 mins2025-07-03 01:08:51.915Z242.537° WSW2025-07-03 01:12:51.915Z37.406° NE44.206°2025-07-03 01:16:51.915Z59.069° ENE
7 mins2025-07-03 02:55:51.915Z293.912° NW2025-07-03 02:58:51.915Z348.27° N31.681°2025-07-03 03:02:51.915Z53.285° ENE
8 mins2025-07-03 04:41:51.915Z307.487° NW2025-07-03 04:45:51.915Z13.636° NNE32.293°2025-07-03 04:49:51.915Z76.617° E
|